GW2090 Weather Reports


time (UTC)temp
F
wind
direction
speed
knots
gust
knots
rain 1hr
in
rain 24hr
in
rain mn
in
humidity
%
barometer
mb
20240418160059 50 61 1.7 5.2 0.00 0.00 0.00 64 1023.0
20240418154553 50 76 1.7 7.0 0.00 0.00 0.00 64 1023.0
20240418153055 50 78 1.7 7.8 0.00 0.00 0.00 61 1023.0
20240418151549 50 87 1.7 6.1 0.00 0.00 0.00 61 1023.1
20240418150049 50 48 2.6 8.7 0.00 0.00 0.00 61 1023.2
20240418144549 49 93 2.6 7.8 0.00 0.00 0.00 61 1023.2
20240418143049 49 138 1.7 7.8 0.00 0.00 0.00 62 1023.1
20240418141555 48 33 1.7 7.0 0.00 0.00 0.00 60 1023.1
20240418140052 48 324 1.7 8.7 0.00 0.00 0.00 58 1023.2
20240418134550 48 59 1.7 7.8 0.00 0.00 0.00 58 1023.3
20240418133112 48 137 0.9 7.8 0.00 0.00 0.00 57 1023.4
20240418131552 48 40 1.7 8.7 0.00 0.00 0.00 56 1023.3
20240418130053 46 360 1.7 4.3 0.00 0.00 0.00 58 1023.5
20240418124551 45 53 0.9 5.2 0.00 0.00 0.00 57 1023.5
20240418123052 45 27 1.7 7.0 0.00 0.00 0.00 58 1023.5
20240418121546 44 44 3.5 7.8 0.00 0.00 0.00 58 1023.7
20240418120052 44 46 2.6 7.0 0.00 0.00 0.00 61 1023.7
20240418114555 43 36 1.7 5.2 0.00 0.00 0.00 62 1023.6
20240418113048 41 0 0.0 5.2 0.00 0.00 0.00 67 1023.4
20240418111545 40 35 2.6 4.3 0.00 0.00 0.00 69 1023.1
20240418110052 38 0 0.0 3.5 0.00 0.00 0.00 72 1022.9
20240418104546 38 35 0.0 2.6 0.00 0.00 0.00 73 1022.7
20240418103049 37 0 0.0 0.9 0.00 0.00 0.00 75 1022.6
20240418101552 37 0 0.0 4.3 0.00 0.00 0.00 76 1022.4
20240418100049 36 0 0.0 3.5 0.00 0.00 0.00 77 1022.2
20240418094549 36 49 0.0 2.6 0.00 0.00 0.00 78 1022.2
20240418093045 36 32 0.9 2.6 0.00 0.00 0.00 79 1022.0
20240418091601 36 0 0.9 4.3 0.00 0.00 0.00 80 1022.1
20240418090058 36 0 0.0 2.6 0.00 0.00 0.00 81 1022.1
20240418084552 36 0 0.0 2.6 0.00 0.00 0.00 81 1022.1
20240418083101 37 31 0.9 3.5 0.00 0.00 0.00 81 1022.2
20240418081556 37 0 0.0 3.5 0.00 0.00 0.00 82 1022.0
20240418080049 37 0 0.9 3.5 0.00 0.00 0.00 82 1022.0
20240418074602 37 0 0.0 2.6 0.00 0.00 0.00 83 1022.0
20240418073052 37 0 0.0 2.6 0.00 0.00 0.00 83 1021.9
20240418071546 37 0 0.9 3.5 0.00 0.00 0.00 83 1021.9
20240418070052 37 36 0.0 0.9 0.00 0.00 0.00 83 1022.2
20240418064602 37 0 0.0 0.0 0.00 0.00 0.00 83 1022.3
20240418063051 37 0 0.0 0.0 0.00 0.00 0.00 82 1022.4
20240418061552 38 0 0.0 0.0 0.00 0.00 0.00 82 1022.5
20240418060100 38 0 0.0 0.0 0.00 0.00 0.00 82 1022.5
20240418054550 38 0 0.0 0.0 0.00 0.00 0.00 82 1022.7
20240418053049 39 0 0.0 0.0 0.00 0.00 0.00 81 1022.7
20240418051602 39 0 0.0 0.0 0.00 0.00 0.00 81 1023.0
20240418050051 39 0 0.0 0.0 0.00 0.00 0.00 80 1023.2
20240418044554 40 0 0.0 1.7 0.00 0.00 0.00 80 1023.2
20240418043057 40 360 0.9 2.6 0.00 0.00 0.00 80 1023.2
20240418041550 40 0 0.0 1.7 0.00 0.00 0.00 80 1023.1
20240418040110 40 0 0.0 1.7 0.00 0.00 0.00 80 1023.0
20240418034552 41 248 0.9 2.6 0.00 0.00 0.00 80 1022.9
20240418033045 41 0 0.0 0.0 0.00 0.00 0.00 79 1022.7
20240418031552 41 0 0.0 0.0 0.00 0.00 0.00 79 1022.5
20240418030051 41 0 0.0 0.0 0.00 0.00 0.00 78 1022.5
20240418024548 41 0 0.0 0.0 0.00 0.00 0.00 78 1022.3
20240418023052 41 0 0.0 0.0 0.00 0.00 0.00 77 1022.2
20240418021557 42 0 0.0 0.0 0.00 0.00 0.00 77 1022.3
20240418020048 42 0 0.0 0.0 0.00 0.00 0.00 76 1022.4
20240418014551 42 0 0.0 1.7 0.00 0.00 0.00 75 1022.4
20240418013053 43 0 0.0 0.9 0.00 0.00 0.00 74 1022.3
20240418011550 43 0 0.0 3.5 0.00 0.00 0.00 74 1022.3
20240418010055 43 0 0.9 3.5 0.00 0.00 0.00 74 1022.3
20240418004554 43 194 0.0 4.3 0.00 0.00 0.00 73 1021.9
20240418003049 43 186 0.9 3.5 0.00 0.00 0.00 72 1021.7
20240418001553 44 0 1.7 5.2 0.00 0.00 0.00 71 1021.6
20240418000102 44 194 0.0 4.3 0.00 0.00 0.00 70 1021.1
20240417234554 44 0 0.9 5.2 0.00 0.00 0.00 69 1021.0
20240417233050 45 0 0.0 2.6 0.00 0.00 0.00 68 1020.9
20240417231548 45 0 0.9 3.5 0.00 0.00 0.00 67 1020.7
20240417230049 45 223 0.9 5.2 0.00 0.00 0.00 67 1020.6
20240417224555 46 174 0.9 4.3 0.00 0.00 0.00 66 1020.5
20240417223049 46 180 0.9 5.2 0.00 0.00 0.00 65 1020.6
20240417221552 46 203 2.6 7.8 0.00 0.00 0.00 63 1020.6
20240417220052 47 156 2.6 8.7 0.00 0.00 0.00 61 1020.6
20240417214549 48 173 1.7 7.0 0.00 0.00 0.00 60 1020.5
20240417213047 48 181 3.5 7.8 0.00 0.00 0.00 57 1020.4
20240417211552 49 155 4.3 8.7 0.00 0.00 0.00 55 1020.3
20240417210051 49 166 3.5 8.7 0.00 0.00 0.00 54 1020.3
20240417204603 49 207 2.6 8.7 0.00 0.00 0.00 55 1020.2
20240417203049 50 178 4.3 8.7 0.00 0.00 0.00 53 1020.2
20240417201548 50 175 3.5 9.6 0.00 0.00 0.00 53 1020.1
20240417200052 50 194 2.6 7.8 0.00 0.00 0.00 51 1020.2
20240417194556 50 182 3.5 8.7 0.00 0.00 0.00 52 1020.3
20240417193047 50 187 3.5 7.8 0.00 0.00 0.00 50 1020.6
20240417191546 51 184 3.5 7.8 0.00 0.00 0.00 49 1020.6
20240417190047 51 200 4.3 8.7 0.00 0.00 0.00 49 1020.7
20240417184545 52 164 4.3 7.0 0.00 0.00 0.00 47 1020.8
20240417183047 52 169 2.6 8.7 0.00 0.00 0.00 46 1020.9
20240417181557 52 182 2.6 7.8 0.00 0.00 0.00 47 1020.9
20240417180100 53 89 1.7 6.1 0.00 0.00 0.00 48 1021.0
20240417174553 55 9 3.5 8.7 0.00 0.00 0.00 45 1021.1
20240417173050 56 5 0.9 4.3 0.00 0.00 0.00 38 1021.4
20240417171605 55 39 0.9 5.2 0.00 0.00 0.00 37 1021.4
20240417170103 55 314 1.7 10.4 0.00 0.00 0.00 39 1021.6
20240417164546 54 282 4.3 10.4 0.00 0.00 0.00 40 1021.6
20240417163054 54 0 2.6 8.7 0.00 0.00 0.00 41 1021.6
20240417161549 54 265 1.7 5.2 0.00 0.00 0.00 43 1021.8